This demonstration page uses our WeatherBlox Daily Observations layout. Learn more.

Left ArrowRight Arrow

34.74481, -87.66753

Hourly Observations for April 16, 2021

Temp ( °F °C ) Dew Point ( °F °C ) Humidity (%) Winds ( mph kmh ) Pressure ( in mb ) Visibility ( mi km ) Precip ( " mm )
12:53 am 00:53 Clear 56 13.3 36 2.2 47 47 ENE 6 9 29.96 1015 10 16 0.00 0.00
1:53 am 01:53 Clear 54 12.2 36 2.2 51 51 NE 6 9 29.94 1014 10 16 0.00 0.00
2:53 am 02:53 Clear 54 12.2 35 1.7 49 49 NE 5 7 29.96 1015 10 16 0.00 0.00
3:53 am 03:53 Clear 54 12.2 35 1.7 49 49 NE 8 13 29.96 1015 10 16 0.00 0.00
4:53 am 04:53 Clear 52 11.1 37 2.8 57 57 NNE 5 7 29.94 1014 10 16 0.00 0.00
5:53 am 05:53 Clear 51 10.6 36 2.2 56 56 NE 8 13 29.95 1014 10 16 0.00 0.00
6:53 am 06:53 Sunny 50 10 38 3.3 63 63 Calm 29.98 1015 10 16 0.00 0.00
7:53 am 07:53 Sunny 52 11.1 37 2.8 57 57 Calm 29.99 1016 10 16 0.00 0.00
8:53 am 08:53 Sunny 54 12.2 38 3.3 55 55 ENE 3 6 29.98 1015 10 16 0.00 0.00
9:53 am 09:53 Sunny 56 13.3 37 2.8 49 49 E 3 6 29.99 1016 10 16 0.00 0.00
10:53 am 10:53 Sunny 59 15 38 3.3 46 46 ESE 7 11 29.97 1015 10 16 0.00 0.00
11:53 am 11:53 Sunny 62 16.7 37 2.8 40 40 undefined N/A 29.95 1014 10 16 0.00 0.00
12:53 pm 12:53 Mostly Cloudy 63 17.2 38 3.3 40 40 VRB 7 11 29.92 1013 10 16 0.00 0.00
1:53 pm 13:53 Cloudy 64 17.8 38 3.3 38 38 E 5 7 29.91 1013 10 16 0.00 0.00
2:53 pm 14:53 Mostly Sunny 64 17.8 34 1.1 33 33 E 3 6 29.89 1012 10 16 0.00 0.00
3:53 pm 15:53 Mostly Sunny 64 17.8 36 2.2 35 35 Calm 29.88 1012 10 16 0.00 0.00
4:53 pm 16:53 Sunny 64 17.8 37 2.8 37 37 Calm 29.87 1011 10 16 0.00 0.00
5:53 pm 17:53 Sunny 63 17.2 36 2.2 37 37 ENE 3 6 29.87 1012 10 16 0.00 0.00
6:53 pm 18:53 Sunny 62 16.7 39 3.9 43 43 Calm 29.87 1012 10 16 0.00 0.00
7:53 pm 19:53 Mostly Cloudy 59 15 44 6.7 58 58 Calm 29.86 1011 10 16 0.00 0.00
8:53 pm 20:53 Partly Cloudy 58 14.4 45 7.2 62 62 Calm 29.86 1011 10 16 0.00 0.00
9:53 pm 21:53 Partly Cloudy 58 14.4 45 7.2 62 62 Calm 29.86 1011 10 16 0.00 0.00
10:53 pm 22:53 Clear 56 13.3 47 8.3 72 72 Calm 29.86 1011 10 16 0.00 0.00
11:53 pm 23:53 Clear 57 13.9 47 8.3 69 69 Calm 29.86 1011 10 16 0.00 0.00

Powered by AerisWeather